Location: El Bakhil
(32.7726°N, 5.5387°W)
Time: 12:04:08
(UTC+00:00)

Okean 1-7 - Pass Details

Date: 03 March 2021
Orbit: 589 x 619 km, 82.5° (Epoch: 15 April)

Event Time Altitude Azimuth Distance (km) Brightness Sun altitude
Rises 19:38:22 0° 1° (N) 2,881 6.5 -17.0°
Reaches altitude 10° 19:40:41 10° 7° (N) 1,968 5.6 -17.5°
Maximum altitude 19:44:52 46° 81° (E) 822 3.2 -18.4°
Enters shadow 19:45:51 38° 119° (ESE) 922 3.5 -18.6°
